Wetbulb
73.98 75.04 73.00 73.18 72.80 72.87 72.95 73.06 73.31 74.07 74.54 74.51 74.39 74.25 74.39 74.56 74.54 74.47 74.60 74.56 74.34 73.63 73.11 72.67 72.77 73.27 73.57 73.56 73.59 73.75 73.57 73.12 73.20 73.37 73.02 72.61 72.31 71.89 71.56 71.61 71.47 71.55 72.22
74.17 74.55 72.23 72.83 72.86 72.93 72.69 72.90 73.02 73.68 74.32 74.39 74.32 74.19 74.23 74.43 74.16 74.54 74.35 74.17 73.59 73.35 72.78 72.25 72.48 72.83 73.34 73.07 73.47 73.26 72.86 72.49 72.51 72.87 73.31 72.40 72.20 71.95 71.46 70.40 71.36 71.58 72.20
72.79 74.96 74.59 72.19 72.72 72.97 72.90 72.98 73.01 73.19 73.57 74.21 74.30 74.34 74.34 74.28 74.48 74.43 74.06 73.77 73.42 73.10 72.79 72.38 72.20 72.34 72.72 72.69 72.88 72.73 72.42 72.32 72.59 72.83 72.80 72.50 72.32 71.65 70.99 70.97 71.60 71.21 71.55
66.90 65.86 67.52 70.88 72.64 72.83 72.87 72.94 73.08 73.19 72.75 73.18 73.61 74.06 74.23 74.14 74.24 74.14 73.81 73.22 73.53 73.09 73.06 72.53 72.32 72.30 72.22 72.43 72.33 72.21 72.06 72.00 71.75 71.72 72.57 72.38 71.30 71.22 70.96 70.82 71.17 70.80 70.85
60.41 62.64 62.13 65.00 67.93 72.60 72.80 72.75 72.99 72.74 72.78 72.37 72.39 73.04 73.55 73.71 73.89 73.66 73.35 72.81 73.22 73.12 73.07 72.81 72.51 72.40 71.93 71.60 71.43 71.29 71.50 71.10 70.46 70.47 72.47 72.28 71.26 71.35 70.89 70.87 70.16 70.78 70.42
57.55 60.10 60.14 61.18 63.66 66.28 71.27 72.79 72.79 72.45 71.99 72.44 72.57 72.42 72.57 72.84 73.21 73.29 72.67 72.62 73.16 73.51 73.42 73.04 72.63 72.09 70.83 70.42 70.60 70.31 70.05 69.92 69.09 71.91 72.12 71.23 71.64 71.02 71.09 70.63 70.82 70.59 69.96
56.52 57.75 59.75 58.24 60.21 62.59 64.87 66.16 69.64 72.14 71.87 71.53 72.09 72.61 72.56 72.61 72.98 72.87 72.26 72.40 72.97 73.76 73.92 73.53 72.65 71.11 70.46 69.61 69.68 69.22 68.86 68.97 71.23 71.48 71.22 71.44 71.50 71.56 70.87 70.38 70.36 70.41 70.12
56.94 57.56 58.00 57.76 57.61 58.57 60.12 61.28 62.79 65.10 70.29 71.07 71.42 71.68 72.08 72.18 72.47 72.19 72.24 72.09 72.39 72.91 72.95 72.57 71.49 70.57 70.16 69.65 69.53 68.96 68.18 67.47 69.99 71.11 71.00 71.59 70.62 71.21 71.02 70.42 70.42 69.98 69.78
55.91 55.75 56.56 56.63 56.45 57.28 58.58 57.33 58.68 60.78 62.88 66.84 70.04 70.43 70.86 70.60 70.27 71.42 71.42 71.62 71.93 72.21 72.21 71.82 70.64 69.59 69.54 69.30 68.94 68.42 67.40 67.40 70.37 70.96 70.85 71.35 69.94 71.09 71.19 70.46 69.92 70.02 69.53
54.21 54.11 54.50 55.28 55.24 56.36 57.74 56.32 56.79 58.18 59.99 63.09 62.70 65.50 68.36 68.82 69.78 70.22 70.20 70.59 71.25 71.42 71.70 71.36 70.03 69.11 68.64 68.39 68.17 67.60 66.84 67.35 70.33 71.04 70.83 71.65 70.25 70.71 71.14 70.51 69.90 69.30 69.48
52.48 52.42 53.22 53.24 53.91 54.74 55.52 55.95 57.56 58.30 60.02 61.25 61.54 62.18 65.46 71.86 72.89 72.33 70.36 69.20 70.16 70.33 70.38 70.54 69.70 68.38 67.62 67.42 67.40 66.88 66.53 70.14 70.79 70.73 70.47 68.48 69.81 70.94 71.27 70.99 70.52 69.37 69.48
50.56 50.87 51.48 51.91 52.16 53.32 53.60 55.76 56.86 57.35 58.44 59.43 60.10 61.20 63.55 66.78 66.22 71.29 70.10 68.30 68.66 69.02 69.31 69.36 68.95 67.91 67.55 70.52 70.06 67.41 69.89 69.94 70.42 70.49 70.10 67.45 69.04 70.60 71.07 71.34 70.45 70.01 69.52
49.75 50.21 50.47 51.27 51.70 51.66 52.67 53.65 55.01 55.81 56.68 57.27 58.05 58.69 59.77 60.92 64.07 63.23 67.55 72.72 72.88 69.76 72.09 70.84 71.34 71.50 71.06 70.45 69.59 70.04 69.96 69.96 69.88 69.92 69.55 66.81 68.43 70.03 70.58 71.24 70.49 69.79 69.51
48.77 48.82 49.44 50.12 50.36 50.93 51.85 52.25 53.24 54.10 54.61 55.10 56.12 57.32 57.05 57.97 59.51 61.41 63.13 59.79 66.86 72.20 71.76 72.05 72.57 71.97 71.36 70.86 70.42 69.80 69.95 69.66 69.26 69.38 69.65 65.41 66.90 69.64 70.68 71.34 70.42 69.92 69.68
47.52 48.13 48.45 49.52 49.18 49.60 50.79 51.19 52.08 52.53 53.01 54.11 54.90 55.77 55.87 56.24 57.08 58.40 59.33 61.52 61.20 60.13 69.23 70.70 70.67 71.10 70.68 70.64 70.49 69.68 68.95 69.39 69.40 68.82 69.59 64.50 65.01 67.62 70.22 70.92 70.87 70.11 69.68
47.09 47.33 48.26 48.15 48.74 48.83 49.13 49.70 50.99 51.70 52.20 53.14 53.41 54.00 55.08 55.24 55.65 56.27 57.15 58.28 59.79 62.80 60.51 59.35 68.71 69.94 70.57 70.80 69.63 69.60 69.03 68.34 68.85 69.00 69.08 69.59 63.51 65.12 67.84 70.05 70.46 70.17 69.87
47.07 47.34 47.32 47.69 48.91 48.69 48.80 49.45 50.24 50.58 51.28 51.59 52.41 53.51 53.95 53.90 53.79 54.35 55.35 56.71 58.05 60.08 61.17 63.16 61.52 69.59 69.58 69.43 69.96 69.51 68.65 68.80 68.12 68.33 68.48 69.11 68.48 62.36 64.46 67.29 68.92 69.23 69.47
46.54 46.28 47.24 47.45 48.18 48.53 48.27 48.68 49.27 49.82 50.28 50.77 51.42 52.03 51.48 51.93 52.73 52.54 53.49 54.90 56.72 57.34 58.31 59.91 63.36 64.97 66.71 68.09 66.29 68.42 68.20 68.05 67.96 68.15 68.03 68.35 69.28 69.53 64.42 64.19 66.34 67.92 68.08
45.78 45.81 46.17 47.13 47.07 47.57 48.55 49.17 49.66 49.72 49.61 49.54 50.30 49.91 50.13 50.65 50.77 50.64 51.55 53.19 52.30 53.24 55.63 58.32 60.42 63.79 64.84 66.44 67.97 66.69 67.70 67.20 67.60 67.18 67.08 67.72 68.61 69.29 69.43 64.19 63.62 64.70 66.23
45.39 45.69 45.92 46.24 46.42 47.01 48.18 48.88 49.36 49.43 49.68 49.84 49.54 49.18 49.42 49.56 48.26 48.20 48.62 48.67 48.74 48.38 49.97 53.15 54.84 59.91 59.78 63.26 65.36 65.95 67.31 67.48 68.01 67.48 67.24 67.55 67.70 68.77 69.51 69.14 68.22 66.80 62.87
44.61 44.38 44.74 44.78 45.58 45.97 46.05 45.72 46.20 46.16 47.71 48.31 48.13 48.28 48.09 47.94 46.51 45.38 45.72 46.44 46.96 46.95 47.98 49.33 50.52 53.60 58.93 60.09 64.61 64.99 65.05 67.31 67.91 67.80 67.48 67.38 67.36 67.42 69.18 69.19 69.25 68.71 67.17
43.09 43.32 43.84 44.02 44.60 44.77 45.10 45.28 45.49 45.79 46.77 46.94 47.15 47.26 47.06 46.85 46.44 45.08 44.41 44.94 46.34 45.73 46.51 47.81 48.85 50.74 53.68 61.03 59.91 61.11 60.31 62.09 64.35 67.24 66.87 67.33 68.23 67.89 67.40 68.89 69.47 69.27 69.10
42.10 42.23 42.75 43.45 43.92 43.86 43.67 44.96 45.12 46.12 46.61 45.24 44.99 45.26 45.61 45.82 45.54 43.80 43.38 43.19 43.54 44.47 45.02 45.94 47.68 48.13 49.45 55.66 61.74 59.44 57.01 57.57 61.74 64.38 64.35 66.09 67.73 68.36 68.30 68.52 69.19 69.25 69.87
40.90 42.38 42.53 42.89 43.10 42.79 42.98 42.35 41.87 41.63 40.82 41.94 41.90 43.14 44.54 45.34 44.52 43.24 42.40 42.11 42.16 42.62 41.93 43.45 46.21 47.48 48.80 48.10 54.56 62.05 63.87 63.16 60.08 58.58 63.87 64.93 65.63 67.21 68.21 69.32 69.07 69.20 69.28
40.74 41.63 42.20 42.44 42.18 42.35 41.79 40.53 40.58 40.10 40.16 40.98 41.00 41.05 42.72 43.58 43.45 42.06 41.15 40.88 40.42 41.59 41.42 41.75 42.30 43.54 44.77 44.55 47.28 50.74 59.57 63.51 60.96 58.06 58.32 60.89 62.98 65.49 67.43 69.04 69.47 69.58 69.19
40.16 41.06 41.23 41.04 41.16 41.53 40.82 40.55 38.90 38.55 38.25 38.07 38.25 38.67 40.25 41.68 42.64 42.26 40.58 39.50 39.78 39.60 39.21 39.90 41.02 42.43 43.35 44.40 46.86 48.82 51.43 56.72 58.31 58.18 58.00 58.66 59.10 62.83 65.82 67.52 69.04 69.57 69.73
MSLP
1013.04 1014.33 1015.05 1015.05 1015.04 1014.95 1014.88 1014.94 1015.07 1015.04 1014.84 1014.78 1014.75 1014.77 1014.85 1015.04 1015.14 1015.12 1015.18 1015.22 1015.36 1015.46 1015.55 1015.41 1015.33 1015.28 1015.28 1015.24 1015.30 1015.29 1015.32 1015.30 1015.39 1015.46 1015.57 1015.55 1015.57 1015.58 1015.54 1015.53 1015.36 1015.01 1015.76
1014.33 1014.80 1015.65 1015.31 1015.20 1015.12 1015.07 1015.09 1015.12 1015.27 1015.21 1015.10 1015.04 1014.96 1014.95 1015.05 1015.28 1015.32 1015.37 1015.33 1015.38 1015.59 1015.66 1015.64 1015.53 1015.44 1015.41 1015.45 1015.45 1015.53 1015.52 1015.55 1015.62 1015.61 1015.74 1015.75 1015.77 1015.79 1015.84 1015.72 1015.52 1015.65 1016.06
1015.18 1014.83 1015.50 1015.97 1015.73 1015.60 1015.33 1015.26 1015.41 1015.43 1015.43 1015.42 1015.29 1015.26 1015.27 1015.27 1015.38 1015.53 1015.50 1015.49 1015.48 1015.61 1015.74 1015.81 1015.67 1015.60 1015.61 1015.61 1015.59 1015.63 1015.73 1015.77 1015.80 1015.78 1015.55 1014.55 1014.99 1015.98 1016.08 1016.07 1016.05 1016.27 1016.41
1016.82 1016.72 1016.90 1016.49 1016.28 1015.98 1015.92 1015.74 1015.78 1015.76 1015.66 1015.71 1015.76 1015.70 1015.57 1015.55 1015.62 1015.71 1015.72 1015.61 1015.65 1015.68 1015.61 1015.79 1015.79 1015.79 1015.76 1015.77 1015.81 1015.77 1015.82 1015.87 1015.97 1015.82 1014.76 1014.38 1014.76 1016.12 1016.18 1016.26 1016.40 1016.51 1016.65
1018.01 1017.80 1017.76 1017.18 1016.88 1016.33 1016.17 1016.07 1016.02 1015.99 1015.97 1016.03 1016.08 1016.06 1015.98 1015.93 1015.88 1015.90 1015.94 1015.83 1015.78 1015.85 1015.77 1015.71 1015.83 1015.96 1015.90 1015.94 1015.97 1015.94 1015.93 1015.95 1015.96 1015.65 1014.71 1014.76 1014.65 1015.87 1016.24 1016.41 1016.62 1016.77 1016.75
1018.78 1018.40 1018.26 1017.94 1017.50 1017.19 1016.65 1016.35 1016.18 1015.99 1015.95 1016.20 1016.26 1016.29 1016.19 1016.17 1016.03 1016.04 1016.06 1015.97 1015.85 1015.89 1015.88 1015.79 1015.91 1016.03 1016.01 1016.05 1016.12 1016.11 1016.06 1016.04 1015.99 1014.60 1015.02 1015.18 1014.83 1015.96 1016.28 1016.51 1016.41 1016.67 1016.86
1019.25 1018.89 1018.29 1018.40 1018.25 1017.97 1017.70 1017.24 1016.72 1016.36 1016.17 1016.15 1016.21 1016.30 1016.15 1016.17 1016.15 1016.13 1016.13 1016.11 1015.93 1015.89 1015.91 1015.93 1016.04 1016.17 1016.18 1016.12 1016.13 1016.17 1016.16 1016.18 1015.48 1014.78 1015.00 1014.79 1015.07 1016.11 1016.35 1016.58 1016.74 1016.85 1017.01
1019.43 1019.38 1019.12 1018.77 1018.63 1018.41 1018.32 1018.02 1017.55 1017.04 1016.51 1016.26 1016.17 1016.23 1016.17 1016.09 1016.05 1016.02 1016.09 1016.06 1016.02 1015.86 1015.80 1015.85 1016.04 1016.19 1016.29 1016.23 1016.23 1016.25 1016.20 1016.21 1015.65 1014.76 1014.92 1014.77 1015.54 1016.16 1016.37 1016.61 1016.82 1016.99 1017.18
1019.84 1019.73 1019.62 1019.24 1018.96 1018.48 1018.41 1018.60 1018.29 1017.67 1017.23 1016.72 1016.23 1016.18 1016.09 1016.01 1015.97 1015.87 1015.87 1015.85 1015.75 1015.65 1015.70 1015.82 1015.95 1016.01 1016.16 1016.27 1016.30 1016.32 1016.31 1016.30 1015.64 1014.70 1014.96 1014.52 1015.49 1016.07 1016.27 1016.56 1016.77 1016.96 1017.21
1020.05 1020.01 1020.03 1019.60 1019.49 1019.21 1018.56 1018.62 1018.63 1018.18 1017.64 1017.09 1016.73 1016.54 1016.23 1015.90 1015.59 1015.61 1015.66 1015.67 1015.53 1015.41 1015.39 1015.64 1015.87 1016.00 1015.99 1016.09 1016.18 1016.30 1016.35 1016.23 1015.54 1014.61 1014.71 1014.41 1015.54 1015.96 1016.10 1016.39 1016.64 1016.92 1017.16
1020.43 1020.52 1020.58 1020.20 1020.02 1019.77 1018.95 1018.81 1018.51 1018.17 1017.80 1017.40 1017.03 1016.79 1016.33 1015.36 1014.79 1014.95 1015.03 1015.05 1015.27 1015.35 1015.32 1015.31 1015.41 1015.71 1015.87 1016.05 1016.03 1016.08 1016.24 1015.32 1014.56 1014.23 1014.10 1014.84 1015.64 1015.94 1016.01 1016.16 1016.39 1016.65 1017.02
1020.78 1020.87 1021.04 1021.03 1020.76 1020.31 1019.56 1019.18 1018.72 1018.33 1018.15 1017.84 1017.61 1017.31 1016.61 1016.22 1016.01 1015.19 1014.94 1015.00 1015.00 1014.94 1014.97 1015.01 1015.16 1015.58 1015.67 1014.85 1014.67 1015.64 1015.31 1014.57 1014.19 1014.03 1013.82 1014.60 1015.42 1015.81 1015.83 1016.05 1016.25 1016.45 1016.69
1021.53 1021.68 1021.63 1021.71 1021.56 1021.09 1020.37 1019.88 1019.21 1018.78 1018.60 1018.17 1018.03 1017.94 1017.29 1016.68 1016.26 1016.10 1015.46 1014.54 1014.28 1014.24 1014.25 1014.13 1014.26 1014.43 1014.25 1014.13 1013.62 1013.49 1013.70 1013.81 1013.63 1013.46 1013.55 1014.55 1015.11 1015.44 1015.56 1015.81 1016.00 1016.26 1016.49
1021.93 1022.26 1022.40 1022.12 1022.04 1021.76 1021.09 1020.53 1020.07 1019.49 1019.23 1018.77 1018.51 1018.38 1017.95 1017.12 1016.60 1016.20 1015.87 1015.95 1015.10 1014.05 1013.72 1013.55 1013.49 1013.22 1012.98 1013.24 1013.26 1013.20 1013.30 1013.16 1012.96 1013.03 1012.88 1013.99 1014.85 1014.99 1015.19 1015.49 1015.75 1015.93 1016.19
1022.48 1022.85 1022.98 1022.62 1022.49 1022.13 1021.54 1021.25 1020.77 1020.36 1019.86 1019.55 1018.89 1018.73 1018.55 1017.92 1017.29 1016.77 1016.11 1015.58 1015.46 1015.26 1014.17 1013.56 1013.34 1012.74 1012.39 1012.34 1012.49 1012.79 1012.72 1012.77 1012.84 1012.70 1012.66 1013.39 1014.14 1014.62 1014.66 1015.04 1015.38 1015.57 1015.85
1023.37 1023.42 1023.52 1023.13 1022.92 1022.62 1022.16 1021.79 1021.10 1020.76 1020.42 1019.87 1019.46 1019.30 1018.98 1018.61 1017.98 1017.23 1016.50 1015.72 1015.14 1014.66 1015.02 1014.75 1013.44 1012.81 1011.98 1011.76 1011.59 1011.78 1012.10 1011.97 1011.97 1012.32 1012.23 1012.32 1013.40 1013.99 1014.27 1014.32 1014.82 1015.13 1015.43
1023.73 1023.89 1023.76 1023.55 1023.32 1022.85 1022.45 1021.94 1021.34 1020.97 1020.56 1020.07 1019.73 1019.50 1019.26 1019.02 1018.50 1017.88 1016.76 1015.99 1015.46 1014.95 1014.75 1014.05 1013.57 1012.42 1012.08 1011.56 1011.16 1010.97 1011.47 1011.73 1011.36 1011.38 1011.72 1011.61 1011.95 1013.21 1013.70 1013.79 1014.17 1014.58 1014.90
1024.17 1024.16 1024.00 1023.89 1023.47 1023.14 1022.85 1022.41 1021.78 1021.41 1020.91 1020.41 1019.97 1019.62 1019.75 1019.45 1018.88 1018.21 1017.14 1016.36 1015.82 1015.54 1014.73 1014.06 1013.36 1012.63 1011.66 1011.35 1011.08 1010.61 1010.12 1010.41 1010.70 1010.74 1010.90 1011.00 1010.88 1010.83 1012.63 1013.32 1013.46 1013.78 1014.21
1024.52 1024.53 1024.16 1023.98 1023.69 1023.23 1022.97 1022.42 1022.01 1021.83 1021.19 1020.82 1020.37 1020.08 1019.98 1019.53 1019.34 1018.70 1017.72 1016.92 1016.93 1016.19 1015.11 1014.05 1013.15 1012.49 1011.58 1010.75 1010.42 1010.39 1010.09 1009.67 1009.98 1009.41 1010.14 1010.25 1010.28 1010.23 1010.05 1011.60 1012.73 1013.07 1013.36
1024.65 1024.70 1024.46 1024.15 1023.96 1023.39 1022.75 1022.36 1021.89 1021.49 1021.06 1020.78 1020.39 1020.35 1020.19 1019.74 1019.68 1019.36 1018.54 1017.94 1017.44 1016.79 1016.00 1015.12 1014.15 1012.82 1012.33 1010.93 1010.07 1009.63 1009.61 1009.66 1009.40 1008.51 1008.61 1009.31 1009.36 1009.68 1009.76 1009.84 1011.23 1012.17 1012.61
1024.76 1024.70 1024.59 1024.29 1024.03 1023.56 1022.93 1022.51 1022.07 1021.71 1021.27 1020.71 1020.52 1020.54 1020.22 1019.99 1019.72 1019.58 1018.92 1018.15 1017.55 1017.04 1016.22 1015.45 1014.71 1013.46 1011.82 1011.16 1009.99 1009.05 1008.72 1008.21 1008.09 1008.26 1008.03 1008.23 1008.48 1008.82 1009.01 1009.14 1009.61 1010.33 1011.36
1024.73 1024.90 1024.67 1024.53 1024.43 1024.17 1023.72 1023.19 1022.82 1022.27 1021.68 1021.24 1020.73 1020.52 1020.37 1020.13 1019.77 1019.45 1019.12 1018.46 1017.77 1017.22 1016.39 1015.56 1014.74 1013.51 1012.19 1010.78 1009.63 1008.71 1007.83 1007.60 1007.58 1007.43 1007.73 1007.35 1007.44 1007.81 1008.20 1008.18 1008.63 1009.24 1009.31
1024.72 1024.80 1024.69 1024.87 1024.90 1024.78 1024.55 1023.41 1023.01 1022.36 1021.56 1021.10 1020.89 1020.52 1020.50 1020.31 1020.00 1019.67 1019.35 1018.87 1018.19 1017.43 1016.41 1015.56 1014.78 1013.96 1012.42 1010.79 1009.11 1008.30 1007.28 1005.91 1006.34 1006.61 1006.75 1006.55 1006.33 1006.64 1006.95 1007.39 1007.42 1008.35 1008.68
1024.99 1025.10 1024.95 1025.04 1024.99 1024.96 1024.79 1024.21 1023.71 1022.98 1022.40 1022.25 1022.03 1021.47 1020.71 1020.32 1020.04 1019.76 1019.44 1018.85 1018.11 1017.57 1016.88 1015.72 1014.84 1014.07 1012.94 1011.42 1009.86 1007.87 1006.92 1005.84 1005.42 1005.31 1005.46 1005.65 1005.84 1005.72 1005.94 1006.42 1006.45 1007.13 1007.72
1025.16 1025.16 1025.18 1025.18 1025.19 1025.18 1024.96 1024.76 1024.21 1023.74 1023.44 1022.87 1022.41 1021.97 1021.23 1020.44 1019.99 1019.75 1019.61 1018.92 1018.19 1017.43 1016.78 1015.89 1014.99 1014.15 1013.31 1012.26 1010.81 1009.23 1007.11 1006.00 1005.80 1005.56 1004.71 1004.65 1004.88 1004.58 1004.99 1005.65 1005.44 1006.07 1006.56
1025.46 1025.45 1025.40 1025.29 1025.23 1025.44 1025.35 1025.03 1024.76 1024.25 1023.86 1023.31 1022.93 1022.36 1021.65 1020.66 1019.72 1019.47 1019.37 1018.85 1018.10 1017.65 1016.84 1016.03 1014.96 1014.01 1012.93 1011.83 1010.66 1009.24 1008.07 1006.17 1004.68 1004.86 1004.58 1003.88 1004.56 1003.64 1004.31 1004.88 1004.64 1005.19 1005.54
Wind_Speed
9 13 8 8 6 5 6 6 5 3 5 7 9 10 10 10 10 10 9 8 6 4 3 3 4 4 6 6 7 7 8 7 7 6 7 8 8 8 8 5 6 12 11
7 12 7 8 6 6 6 5 4 3 3 6 7 8 9 10 9 9 8 8 6 5 3 2 3 4 6 6 6 6 7 6 6 6 7 8 8 7 6 2 7 14 11
9 10 12 9 7 5 5 5 3 3 2 3 6 7 8 9 9 8 8 7 6 5 3 2 3 4 5 6 7 7 6 6 6 5 8 7 9 6 6 4 9 10 11
19 17 19 16 10 9 8 7 5 4 2 2 3 5 7 8 8 7 7 6 5 6 5 4 4 4 6 6 6 7 7 7 6 6 10 3 9 8 7 6 8 10 11
17 15 19 23 22 13 7 7 6 6 6 4 1 2 3 5 7 7 6 6 6 6 6 6 5 6 6 7 7 7 7 7 6 9 2 4 5 11 7 7 9 10 11
15 15 19 24 24 24 21 12 6 4 3 4 5 3 3 4 6 6 7 7 6 7 7 7 6 6 7 8 8 7 6 6 8 7 5 5 6 13 9 7 6 9 7
14 15 16 23 23 22 22 23 20 9 5 3 6 7 6 5 5 5 6 7 8 7 7 5 5 6 8 8 8 8 6 7 10 5 6 5 5 9 9 7 7 8 8
14 14 15 18 21 21 22 23 21 22 12 6 5 7 8 8 7 7 7 8 9 9 8 7 6 7 8 8 8 8 7 7 8 6 6 6 12 8 9 9 8 9 8
15 15 14 16 18 19 17 23 21 21 20 18 8 8 9 8 9 8 9 9 10 10 9 9 8 9 9 9 8 7 6 6 11 6 7 7 14 9 11 10 10 10 9
15 16 16 15 16 14 13 18 18 19 19 17 20 18 13 10 10 9 9 12 11 11 10 10 8 8 9 9 9 6 7 7 12 9 7 4 10 10 12 12 12 11 9
13 16 15 16 16 15 12 12 14 16 14 14 16 17 13 10 9 11 11 9 11 11 11 11 9 9 8 9 9 7 7 9 11 7 6 13 9 12 13 13 13 12 11
15 16 15 15 16 15 11 12 11 10 10 10 12 13 9 11 11 13 9 8 11 11 12 11 10 6 8 10 9 11 9 12 9 8 6 12 11 13 14 12 13 13 13
13 13 15 15 15 15 11 10 7 7 8 8 12 13 11 10 7 7 9 8 8 12 10 13 12 11 13 11 11 9 12 12 8 8 8 11 11 15 15 14 15 15 15
13 14 15 15 14 14 9 9 9 8 9 8 10 12 11 8 10 9 5 7 11 9 11 11 8 12 13 15 14 13 13 10 8 7 7 14 12 14 16 15 17 17 16
13 13 14 13 13 12 11 9 8 9 9 10 9 11 11 10 10 11 10 9 7 7 10 10 9 13 14 15 15 15 15 14 14 8 7 15 13 14 16 16 18 19 19
12 12 12 12 12 11 10 10 8 8 9 8 9 10 13 11 10 11 11 11 10 8 7 8 12 11 15 14 15 16 16 15 15 14 11 9 15 14 15 16 18 19 20
10 11 12 12 12 11 11 9 8 8 8 8 8 11 13 13 14 14 11 11 11 11 14 11 10 14 12 12 18 15 14 16 15 15 14 12 13 15 14 16 15 18 19
10 11 10 10 12 12 11 8 7 8 8 8 9 9 14 14 14 14 12 11 12 12 12 12 11 10 9 12 10 12 11 14 17 16 15 13 13 12 16 16 17 17 19
9 9 10 10 12 12 10 8 7 7 6 7 7 9 13 12 14 13 12 12 14 13 13 12 11 11 9 11 14 12 11 11 15 15 18 19 17 14 11 21 20 17 19
9 9 9 9 12 11 7 7 6 6 6 6 7 9 13 11 14 13 11 13 13 10 12 13 17 13 11 11 12 13 13 12 12 15 16 17 18 19 17 15 16 16 17
8 9 10 11 12 10 8 9 8 9 7 8 9 12 13 13 13 12 10 11 11 12 14 13 12 16 13 11 14 13 14 16 18 13 15 16 19 18 18 17 12 13 14
8 9 10 11 11 9 8 7 7 7 6 7 9 11 14 15 14 12 13 12 14 11 13 13 14 12 12 11 9 11 10 11 12 14 13 15 18 14 18 19 18 17 15
9 9 9 10 10 9 11 7 8 7 7 9 11 11 13 14 14 14 14 13 13 12 11 13 13 14 12 14 18 10 8 13 10 11 17 15 18 14 15 18 19 17 17
8 7 8 8 9 10 11 10 11 9 10 9 10 11 12 14 14 13 14 15 14 11 13 12 13 13 12 12 15 13 20 14 10 12 12 16 16 17 18 15 16 17 18
7 7 7 8 9 9 10 10 9 9 8 8 9 13 13 12 12 12 14 15 14 12 13 15 15 14 11 12 11 12 17 13 19 12 12 9 13 14 14 16 15 14 18
7 6 7 8 8 10 10 10 10 11 11 9 11 10 10 10 10 13 16 14 14 14 14 14 16 17 14 14 12 11 12 11 11 15 12 7 8 9 11 15 15 15 14
Wind_Direction
46 102 103 100 97 88 73 65 72 94 131 148 151 150 148 150 150 145 144 144 151 152 132 120 110 107 117 124 130 119 111 102 101 98 108 112 112 111 112 126 195 118 127
33 84 81 97 104 100 92 81 80 90 110 140 149 154 152 151 153 147 150 151 157 162 148 124 122 123 131 133 126 121 115 117 117 116 122 123 112 113 117 136 314 111 128
62 82 74 40 52 71 88 82 75 71 94 137 148 154 153 152 155 155 159 164 168 173 170 166 142 136 141 143 131 128 129 125 127 140 205 166 126 125 122 97 97 128 132
25 35 25 21 28 36 36 36 27 22 57 120 156 159 154 156 160 167 173 180 190 192 185 188 182 158 157 143 144 138 139 134 144 189 216 185 132 136 139 132 132 137 138
27 29 25 24 20 24 33 37 32 18 3 355 359 186 177 179 179 183 191 206 216 219 213 199 193 174 165 161 157 154 147 149 174 225 190 201 170 130 151 156 153 144 164
30 25 31 27 26 21 22 18 33 52 40 338 306 288 236 210 196 196 203 221 232 235 233 219 194 183 177 175 169 163 164 169 211 208 181 120 269 133 160 178 135 141 157
32 27 29 29 25 23 20 18 8 7 8 342 310 290 250 234 227 223 221 235 243 245 245 230 186 200 194 188 185 177 170 198 240 201 228 212 186 150 165 167 147 155 159
38 32 27 27 24 20 21 16 14 13 4 349 308 296 284 259 241 225 233 241 251 251 249 235 213 216 213 207 202 196 192 218 222 247 235 229 112 166 178 171 163 165 170
37 33 27 24 17 16 23 15 10 12 11 358 342 312 286 268 255 233 232 236 240 247 251 247 224 217 221 224 223 209 205 224 270 256 250 238 132 184 182 176 169 165 161
34 30 21 23 18 9 14 16 7 9 9 6 11 6 327 290 255 240 237 234 240 239 240 247 240 228 228 223 233 227 221 225 245 251 244 208 143 190 189 180 178 173 167
31 27 22 17 15 4 9 8 5 7 11 3 4 359 344 329 291 263 244 253 219 235 244 242 240 224 232 241 234 235 224 239 232 239 237 122 163 199 202 188 183 178 176
24 22 18 15 12 2 2 360 6 6 6 5 4 355 345 335 337 311 290 275 249 231 232 236 242 224 221 247 213 211 233 243 240 257 242 138 179 207 209 188 187 183 179
24 21 16 14 11 7 360 355 2 359 356 357 1 356 343 333 336 334 338 300 260 229 241 223 225 228 236 239 243 231 219 230 236 233 228 152 190 209 216 200 186 187 184
25 21 13 16 11 11 357 2 355 358 355 357 356 0 346 340 336 332 319 327 327 279 260 255 249 248 232 234 240 246 238 238 230 236 230 162 196 208 217 206 196 194 190
25 19 12 14 12 7 7 1 360 357 360 346 354 4 352 343 336 329 321 312 309 325 304 257 252 251 238 234 234 235 238 235 242 240 243 169 191 210 216 214 205 202 198
16 17 10 11 11 5 6 1 357 4 350 353 354 359 355 345 341 326 319 312 304 309 312 321 284 239 248 244 231 231 238 238 232 233 234 202 190 206 216 215 213 207 205
20 11 11 4 7 6 4 3 1 8 351 356 354 357 360 350 341 331 320 316 317 314 307 300 301 259 251 250 245 229 224 240 240 234 232 238 186 200 213 215 213 208 206
16 12 12 5 6 5 8 2 359 5 354 358 354 357 1 345 344 333 324 318 326 313 302 294 281 297 235 240 248 257 228 223 232 236 235 232 234 208 199 216 215 209 207
20 11 11 9 10 4 5 358 0 2 359 360 358 359 356 348 348 336 324 326 335 318 314 296 290 290 273 232 234 235 234 223 228 223 233 231 231 232 219 190 208 210 205
21 12 8 13 10 1 3 356 356 355 7 359 2 3 353 356 349 341 331 328 323 318 315 312 312 297 293 273 253 241 238 235 238 233 223 231 226 226 226 233 195 215 210
25 14 10 9 9 3 2 358 352 353 1 360 2 358 353 352 357 340 333 323 325 322 312 301 298 304 286 281 256 242 248 240 238 233 231 228 227 224 222 220 227 204 203
22 17 11 10 7 7 355 352 347 343 341 350 355 352 355 350 353 342 342 333 331 319 320 314 314 300 289 273 272 242 232 232 239 229 235 226 229 218 225 218 219 228 223
23 17 11 7 4 10 355 356 349 342 345 359 356 350 346 346 350 348 344 336 330 322 316 310 305 302 300 299 267 247 224 239 231 220 223 226 225 217 223 219 213 221 226
22 13 12 7 10 11 8 1 356 353 352 353 345 339 333 345 346 350 342 337 331 327 315 317 318 308 301 297 309 262 246 266 232 226 213 219 224 221 215 225 212 214 222
17 16 12 3 14 14 12 4 356 356 346 344 342 337 338 337 343 351 345 337 335 331 325 320 314 306 299 293 293 302 287 243 249 262 244 210 220 222 223 218 223 214 214
21 15 11 6 20 14 8 8 1 356 352 344 348 339 338 341 343 356 345 343 338 332 328 321 313 306 299 290 282 281 281 275 235 229 249 210 247 198 218 229 217 223 218